Regional Weather Roundup
Issued by NWS Kansas City/Pleasant Hill, MO

Home | Current Version | Previous Version | Text Only | Print | Product List | Glossary On
Versions: 1 2 3 4 5 6 7 8 9 10 11 12 13 14 15 16 17 18 19 20 21 22 23 24 25 26 27 28 29 30 31 32 33 34 35 36 37 38 39 40 41 42 43 44 45 46 47 48 49 50
000
ASUS43 KEAX 300510
RWREAX

WEATHER ROUNDUP FOR EASTERN KANSAS AND NORTHWEST MISSOURI
NATIONAL WEATHER SERVICE KANSAS CITY/PLEASANT HILL MO
1200 AM CDT THU MAR 30 2017

KSZ040-057-103>105-MOZ028-029-037-043-300600-
...KANSAS CITY METROPOLITAN AREA...

CITY           SKY/WX    TMP DP  RH WIND       PRES   REMARKS
K.C. INTL      CLOUDY    53  53 100 NE12      29.62F FOG
K.C. DOWNTOWN  CLOUDY    55  53  93 E7        29.63F
LEES SUMMIT    CLOUDY    54  54 100 NE13      29.61F FOG
OLATHE - IXD   PTCLDY    54  52  93 E7        29.61F FOG
OLATHE - OJC   CLOUDY    53  53 100 NE7       29.62F FOG
LAWRENCE       CLOUDY    55  54  96 E12       29.60F

$$

MOZ001>008-011>017-020>025-030>033-038>040-044>046-053-054-300600-
...NORTHERN AND CENTRAL MISSOURI...

CITY           SKY/WX    TMP DP  RH WIND       PRES   REMARKS
ST. JOSEPH     CLOUDY    52  52 100 E16G25    29.62F
MOSBY          MOCLDY    54  52  94 NE10      29.63F
WARRENSBURG    MOCLDY    54  54 100 CALM      29.63F FOG
WHITEMAN AFB   DRIZZLE   55  55 100 W7        29.63R
CLINTON        CLOUDY    59  57  94 NW6       29.63S
SEDALIA        LGT RAIN  58  58 100 W3        29.62F FOG
WARSAW         NOT AVBL
CHILLICOTHE      N/A     52  51  97 NE13      29.68F
KIRKSVILLE     CLOUDY    50  50 100 NE16      29.71F

$$

MOZ041-047>049-056>058-063>065-088>090-097-300600-
...EASTERN AND SOUTHERN MISSOURI...

CITY           SKY/WX    TMP DP  RH WIND       PRES   REMARKS
ST. LOUIS INTL CLOUDY    61  54  77 SE13      29.71F
SPIRIT OF STL  LGT RAIN  63  56  78 SE7       29.70S
COLUMBIA       CLOUDY    61  60  97 SE9       29.63F
JEFFERSON CITY CLOUDY    65  60  84 E10       29.62F
ROLLA          LGT RAIN  63  62  97 SE8       29.65F
OSAGE BEACH    CLEAR     62  61  96 SE6       29.64F
SPRINGFIELD    MOCLDY    59  53  80 SW5       29.66S
BRANSON        CLOUDY    64  57  77 SW7       29.68S
JOPLIN         CLEAR     54  47  77 SW16      29.66F

$$

IAZ060-094-KSZ022-034>040-054-083-096-NEZ052-066-093-300600-
...KANSAS...SOUTHEAST NEBRASKA AND IOWA...

CITY           SKY/WX    TMP DP  RH WIND       PRES   REMARKS
TOPEKA         CLOUDY    56  56 100 SE5       29.59S
MANHATTAN      LGT RAIN  49  48  97 N5        29.58F
EMPORIA        CLOUDY    49  49 100 S6        29.56F
CHANUTE        CLOUDY    49  44  83 SW22      29.61F
WICHITA        DRIZZLE   44  44 100 NW16      29.64F
OMAHA          LGT RAIN  43  38  82 N15G25    29.74F
LINCOLN        LGT RAIN  42  41  96 N16G24    29.75F FOG     WCI  34
FALLS CITY     CLOUDY    49  46  90 NE12      29.63F
LAMONI         LGT RAIN  46  44  93 NE18G25   29.74F
DES MOINES     CLOUDY    44  41  89 E15G26    29.80F

$$




USA.gov is the U.S. government's official web portal to all federal, state and local government web resources and services.